Simultaneous Nadir Overpasses (SNOs) Predictions

Prediction of SNOs between GOES-16 and AQUA Satellite Orbit:

Table of predicted SNOs for the next 14.0 days since TLE Epoch: 6/1/2024
Index Date Time (GOES-16) GOES-16 Lat,Lon AQUA Lat,Lon Distance(km) Time Diff (sec)
1 06/01/2024 19:07:35 -0.01, -75.20 0.03, -74.88 35.49 80
2 06/03/2024 18:51:06 -0.00, -75.21 0.94, -70.86 495.28 80
3 06/04/2024 07:13:54 0.01, -75.22 0.12, -75.73 58.04 80
4 06/06/2024 06:54:44 -0.00, -75.23 -0.77, -71.70 402.43 80
5 06/06/2024 19:17:41 -0.00, -75.23 -0.29, -76.61 155.79 80
6 06/08/2024 18:58:30 0.00, -75.26 0.59, -72.57 305.77 80
7 06/09/2024 07:21:18 -0.00, -75.27 0.45, -77.44 246.99 80
8 06/11/2024 07:02:06 -0.00, -75.30 -0.42, -73.40 216.03 80
9 06/11/2024 19:25:03 0.00, -75.30 -0.62, -78.31 341.58 80
10 06/13/2024 19:05:50 0.00, -75.34 0.24, -74.26 122.98 80
11 06/14/2024 07:28:36 0.00, -75.36 0.84, -79.12 429.00 80
